Location: Dittelspoint
(48.7198°N, 10.7214°E)
Time: 00:31:13
(UTC+00:00)

STARLINK-1240 - Pass Details

Date: 09 April 2020
Orbit: 549 x 550 km, 53.0° (Epoch: 03 June)

Event Time Altitude Azimuth Distance (km) Brightness Sun altitude
Rises 18:33:35 0° 290° (WNW) 2,728 10.1 -6.1°
Reaches altitude 10° 18:35:52 10° 295° (WNW) 1,833 8.1 -6.4°
Maximum altitude 18:39:57 55° 13° (NNE) 671 4.1 -7.1°
Drops below altitude 10° 18:44:03 10° 92° (E) 1,829 5.7 -7.7°
Enters shadow 18:44:18 - 93° (E) 1,926 5.8 -7.7°
